Location: Lombard
(41.8800°N, 88.0080°W)
Time: 22:56:30
(UTC-05:00)

DX 1 - Pass Details

Date: 13 June 2023
Orbit: 614 x 623 km, 98.3° (Epoch: 02 October)

Event Time Altitude Azimuth Distance (km) Brightness Sun altitude
Rises 23:00:25 0° 20° (NNE) 2,914 ? -19.9°
Reaches altitude 10° 23:02:44 10° 28° (NNE) 2,001 ? -20.1°
Maximum altitude 23:06:50 40° 99° (E) 920 ? -20.5°
Enters shadow 23:06:58 40° 104° (ESE) 922 ? -20.5°
